JE4YIZ-13 Weather Reports


Display with metric or nautical units.
time (UTC)temp
F
wind
direction
speed
MPH
gust
MPH
rain 1hr
in
rain 24hr
in
rain mn
in
humidity
%
barometer
mb
20260901203530 80 104 1.0 5.0 0.00 0.00 0.00 83 1010.7
20260901203033 80 89 3.0 6.0 0.00 0.00 0.00 83 1010.5
20260901202515 81 85 4.0 6.0 0.00 0.00 0.00 83 1010.6
20260901202015 81 79 2.0 6.0 0.00 0.00 0.00 83 1010.6
20260901201518 81 68 2.0 5.0 0.00 0.00 0.00 83 1010.6
20260901201029 81 75 2.0 8.0 0.00 0.00 0.00 83 1010.5
20260901200601 81 68 3.0 9.0 0.00 0.00 0.00 83 1010.5
20260901200018 81 22 4.0 8.0 0.00 0.00 0.00 83 1010.5
20260901195527 81 49 4.0 9.0 0.00 0.00 0.00 83 1010.4
20260901195037 81 360 4.0 10.0 0.00 0.00 0.00 84 1010.4
20260901194518 81 340 5.0 10.0 0.00 0.00 0.00 84 1010.5
20260901194027 81 59 3.0 7.0 0.00 0.00 0.00 84 1010.4
20260901193534 81 72 4.0 6.0 0.00 0.00 0.00 84 1010.4
20260901193039 81 86 3.0 7.0 0.00 0.00 0.00 84 1010.5
20260901192520 81 110 3.0 5.0 0.00 0.00 0.00 84 1010.5
20260901192030 81 105 2.0 5.0 0.00 0.00 0.00 84 1010.5
20260901191539 81 80 2.0 5.0 0.00 0.00 0.00 84 1010.5
20260901191019 81 105 2.0 8.0 0.00 0.00 0.00 84 1010.4
20260901190529 81 9 3.0 8.0 0.00 0.00 0.00 84 1010.5
20260901190015 81 77 3.0 7.0 0.00 0.00 0.00 84 1010.4
20260901185521 81 68 2.0 5.0 0.00 0.00 0.00 84 1010.4
20260901185052 81 65 3.0 5.0 0.00 0.00 0.00 84 1010.4
20260901184540 81 23 3.0 6.0 0.00 0.00 0.00 84 1010.5
20260901184018 81 95 3.0 6.0 0.00 0.00 0.00 83 1010.6
20260901183529 81 114 3.0 6.0 0.00 0.00 0.00 83 1010.6
20260901183026 81 73 3.0 6.0 0.00 0.00 0.00 83 1010.6
20260901182526 81 59 3.0 6.0 0.00 0.00 0.00 83 1010.6
20260901182030 81 34 3.0 5.0 0.00 0.00 0.00 83 1010.6
20260901181541 81 68 3.0 6.0 0.00 0.00 0.00 83 1010.6
20260901181021 81 65 3.0 8.0 0.00 0.00 0.00 83 1010.6
20260901180529 81 359 3.0 5.0 0.00 0.00 0.00 83 1010.7
20260901180036 81 70 3.0 7.0 0.00 0.00 0.00 83 1010.7
20260901175517 81 349 4.0 7.0 0.00 0.00 0.00 83 1010.6
20260901175026 81 95 2.0 5.0 0.00 0.00 0.00 83 1010.6
20260901174515 81 133 2.0 5.0 0.00 0.00 0.00 83 1010.6
20260901174039 81 59 3.0 7.0 0.00 0.00 0.00 83 1010.6
20260901173529 81 84 3.0 7.0 0.00 0.00 0.00 83 1010.6
20260901173036 81 73 3.0 7.0 0.00 0.00 0.00 82 1010.6
20260901172518 81 76 3.0 7.0 0.00 0.00 0.00 82 1010.7
20260901172027 81 25 3.0 9.0 0.00 0.00 0.00 82 1010.7
20260901171537 81 92 3.0 9.0 0.00 0.00 0.00 82 1010.8
20260901171020 81 35 3.0 7.0 0.00 0.00 0.00 82 1010.7
20260901170526 81 56 3.0 7.0 0.00 0.00 0.00 82 1010.8
20260901170033 82 101 3.0 8.0 0.00 0.00 0.00 82 1010.7
20260901165603 82 82 4.0 9.0 0.00 0.00 0.00 81 1010.7
20260901165022 82 86 4.0 9.0 0.00 0.00 0.00 81 1010.8
20260901164531 82 27 4.0 7.0 0.00 0.00 0.00 81 1010.7
20260901164036 82 39 4.0 7.0 0.00 0.00 0.00 81 1010.7
20260901163520 82 22 4.0 7.0 0.00 0.00 0.00 80 1010.8
20260901163026 82 72 4.0 6.0 0.00 0.00 0.00 80 1010.8
20260901162531 82 79 3.0 6.0 0.00 0.00 0.00 80 1010.9
20260901162040 82 44 3.0 7.0 0.00 0.00 0.00 79 1010.9
20260901161521 82 27 4.0 7.0 0.00 0.00 0.00 79 1011.0
20260901161052 82 2 4.0 7.0 0.00 0.00 0.00 78 1011.0
20260901160540 82 70 3.0 9.0 0.00 0.00 0.00 78 1011.1
20260901160018 82 72 3.0 9.0 0.00 0.00 0.00 78 1011.0
20260901155529 82 96 4.0 11.0 0.00 0.00 0.00 77 1011.1
20260901155018 82 36 4.0 11.0 0.00 0.00 0.00 77 1011.1
20260901154515 82 53 4.0 8.0 0.00 0.00 0.00 77 1011.1
20260901154024 82 89 4.0 9.0 0.00 0.00 0.00 77 1010.9
20260901153604 82 322 3.0 9.0 0.00 0.00 0.00 77 1011.1
20260901153027 82 32 3.0 8.0 0.00 0.00 0.00 78 1011.1
20260901152538 82 58 4.0 7.0 0.00 0.00 0.00 78 1011.2
20260901152019 82 68 4.0 7.0 0.00 0.00 0.00 78 1011.2
20260901151544 82 69 4.0 7.0 0.00 0.00 0.00 78 1011.2
20260901151033 82 63 2.0 6.0 0.00 0.00 0.00 78 1011.3
20260901150517 82 50 3.0 4.0 0.00 0.00 0.00 78 1011.3
20260901150044 82 99 2.0 4.0 0.00 0.00 0.00 78 1011.3
20260901145540 82 82 2.0 5.0 0.00 0.00 0.00 78 1011.3
20260901145027 82 81 2.0 4.0 0.00 0.00 0.00 78 1011.3
20260901144527 82 97 2.0 4.0 0.00 0.00 0.00 78 1011.3
20260901144054 82 111 2.0 4.0 0.00 0.00 0.00 77 1011.3
20260901143517 82 78 2.0 6.0 0.00 0.00 0.00 77 1011.2
20260901143036 82 121 1.0 5.0 0.00 0.00 0.00 77 1011.3
20260901142546 82 122 2.0 5.0 0.00 0.00 0.00 76 1011.2
20260901142054 82 64 3.0 5.0 0.00 0.00 0.00 76 1011.2
20260901141541 82 85 2.0 8.0 0.00 0.00 0.00 76 1011.2
20260901141043 82 64 3.0 8.0 0.00 0.00 0.00 76 1011.3
20260901140524 82 52 3.0 9.0 0.00 0.00 0.00 76 1011.3
20260901140028 82 17 4.0 9.0 0.00 0.00 0.00 76 1011.4
20260901135537 82 102 3.0 6.0 0.00 0.00 0.00 76 1011.4
20260901135020 82 61 2.0 6.0 0.00 0.00 0.00 76 1011.6
20260901134529 82 79 3.0 7.0 0.00 0.00 0.00 76 1011.5
20260901134037 82 54 2.0 5.0 0.00 0.00 0.00 76 1011.4
20260901133542 82 94 3.0 5.0 0.00 0.00 0.00 76 1011.6
20260901133018 82 89 2.0 6.0 0.00 0.00 0.00 76 1011.5
20260901132521 82 330 3.0 6.0 0.00 0.00 0.00 76 1011.5
20260901132029 82 100 3.0 6.0 0.00 0.00 0.00 76 1011.5
20260901131539 82 33 3.0 6.0 0.00 0.00 0.00 77 1011.4
20260901131021 83 72 3.0 5.0 0.00 0.00 0.00 77 1011.5
20260901130532 82 37 3.0 6.0 0.00 0.00 0.00 77 1011.4
20260901130059 82 69 3.0 6.0 0.00 0.00 0.00 77 1011.3
20260901125521 82 352 3.0 6.0 0.00 0.00 0.00 77 1011.3
20260901125030 82 68 3.0 5.0 0.00 0.00 0.00 77 1011.4
20260901124528 82 109 2.0 5.0 0.00 0.00 0.00 77 1011.4
20260901124058 82 78 2.0 5.0 0.00 0.00 0.00 77 1011.4
20260901123518 82 125 1.0 4.0 0.00 0.00 0.00 77 1011.4
20260901123046 82 140 1.0 4.0 0.00 0.00 0.00 77 1011.4
20260901122535 82 120 0.0 4.0 0.00 0.00 0.00 76 1011.5
20260901122037 82 75 3.0 8.0 0.00 0.00 0.00 76 1011.5
20260901121526 82 106 2.0 8.0 0.00 0.00 0.00 76 1011.6
20260901121023 82 110 2.0 4.0 0.00 0.00 0.00 77 1011.5
20260901120534 83 100 2.0 5.0 0.00 0.00 0.00 77 1011.6
20260901120015 83 72 2.0 5.0 0.00 0.00 0.00 77 1011.5
20260901115523 83 64 1.0 4.0 0.00 0.00 0.00 77 1011.4
20260901115032 83 129 1.0 6.0 0.00 0.00 0.00 77 1011.4
20260901114541 83 84 2.0 6.0 0.00 0.00 0.00 76 1011.3
20260901114024 83 63 3.0 6.0 0.00 0.00 0.00 77 1011.3
20260901113529 83 86 3.0 8.0 0.00 0.00 0.00 77 1011.2
20260901113036 83 82 3.0 8.0 0.00 0.00 0.00 77 1011.1
20260901112518 83 74 4.0 8.0 0.00 0.00 0.00 78 1011.0
20260901112048 83 84 3.0 6.0 0.00 0.00 0.00 78 1011.0
20260901111535 83 70 2.0 7.0 0.00 0.00 0.00 79 1011.0
20260901111018 82 58 3.0 9.0 0.00 0.00 0.00 79 1011.0
20260901110038 82 90 3.0 9.0 0.00 0.00 0.00 80 1011.0
20260901105521 82 127 3.0 10.0 0.00 0.00 0.00 80 1011.0
20260901105027 82 51 4.0 10.0 0.00 0.00 0.00 80 1010.9
20260901104554 82 8 2.0 7.0 0.00 0.00 0.00 79 1010.8
20260901104035 82 68 4.0 6.0 0.00 0.00 0.00 79 1010.7
20260901103524 83 127 2.0 8.0 0.00 0.00 0.00 79 1010.6
20260901103033 83 266 3.0 8.0 0.00 0.00 0.00 79 1010.5
20260901102601 83 122 2.0 5.0 0.00 0.00 0.00 79 1010.4
20260901102022 83 82 2.0 5.0 0.00 0.00 0.00 78 1010.4
20260901101527 83 65 1.0 5.0 0.00 0.00 0.00 78 1010.4
20260901101036 83 113 2.0 9.0 0.00 0.00 0.00 78 1010.4
20260901100518 83 108 1.0 4.0 0.00 0.00 0.00 78 1010.4
20260901100026 83 149 1.0 6.0 0.00 0.00 0.00 78 1010.5
20260901095535 83 166 3.0 7.0 0.00 0.00 0.00 77 1010.4
20260901095016 83 188 2.0 7.0 0.00 0.00 0.00 77 1010.5
20260901094543 84 175 1.0 5.0 0.00 0.00 0.00 76 1010.4
20260901094019 84 148 2.0 7.0 0.00 0.00 0.00 76 1010.5
20260901093524 84 83 4.0 7.0 0.00 0.00 0.00 76 1010.7
20260901093031 84 97 2.0 7.0 0.00 0.00 0.00 75 1010.7
20260901092601 84 345 4.0 6.0 0.00 0.00 0.00 75 1010.7
20260901092022 85 104 1.0 9.0 0.00 0.00 0.00 74 1010.7
20260901091552 85 66 2.0 9.0 0.00 0.00 0.00 73 1010.7
20260901091032 85 83 3.0 6.0 0.00 0.00 0.00 73 1010.7
20260901090542 85 81 3.0 9.0 0.00 0.00 0.00 71 1010.6
20260901090019 86 111 3.0 9.0 0.00 0.00 0.00 70 1010.6
20260901085549 86 121 3.0 9.0 0.00 0.00 0.00 69 1010.6
20260901085038 87 162 4.0 9.0 0.00 0.00 0.00 69 1010.6
20260901084024 86 64 3.0 9.0 0.00 0.00 0.00 69 1010.5
20260901083534 86 198 3.0 9.0 0.00 0.00 0.00 70 1010.8
20260901083042 85 63 3.0 7.0 0.00 0.00 0.00 71 1010.6
20260901082524 85 60 3.0 8.0 0.00 0.00 0.00 71 1010.5
20260901082047 85 224 3.0 8.0 0.00 0.00 0.00 71 1010.4
20260901081534 85 205 4.0 8.0 0.00 0.00 0.00 71 1010.4
20260901081017 86 65 3.0 9.0 0.00 0.00 0.00 71 1010.3
20260901080550 86 82 4.0 9.0 0.00 0.00 0.00 71 1010.4
20260901080036 86 105 3.0 7.0 0.00 0.00 0.00 71 1010.3
20260901075537 87 128 4.0 8.0 0.00 0.00 0.00 71 1010.4
20260901075015 87 239 3.0 8.0 0.00 0.00 0.00 71 1010.4
20260901074525 87 96 4.0 9.0 0.00 0.00 0.00 71 1010.5
20260901074029 87 106 6.0 12.0 0.00 0.00 0.00 70 1010.4
20260901073539 87 83 5.0 12.0 0.00 0.00 0.00 69 1010.4
20260901073019 88 61 6.0 11.0 0.00 0.00 0.00 68 1010.4
20260901072527 88 56 7.0 12.0 0.00 0.00 0.00 68 1010.4
20260901072036 88 72 5.0 12.0 0.00 0.00 0.00 68 1010.6
20260901071517 88 86 4.0 11.0 0.00 0.00 0.00 68 1010.5
20260901071016 88 204 4.0 9.0 0.00 0.00 0.00 68 1010.7
20260901070543 88 35 4.0 11.0 0.00 0.00 0.00 69 1010.5
20260901070029 88 44 5.0 12.0 0.00 0.00 0.00 68 1010.6
20260901065559 88 54 4.0 12.0 0.00 0.00 0.00 68 1010.5
20260901065020 88 112 3.0 6.0 0.00 0.00 0.00 68 1010.4
20260901064527 87 274 2.0 9.0 0.00 0.00 0.00 69 1010.5
20260901064036 87 98 5.0 8.0 0.00 0.00 0.00 70 1010.5
20260901063519 86 88 4.0 8.0 0.00 0.00 0.00 72 1010.5
20260901063027 86 323 4.0 9.0 0.00 0.00 0.00 72 1010.6
20260901062532 86 14 4.0 10.0 0.00 0.00 0.00 71 1010.7
20260901062102 85 110 3.0 10.0 0.00 0.00 0.00 71 1010.7
20260901061521 86 53 5.0 9.0 0.00 0.00 0.00 70 1010.7
20260901061030 86 56 5.0 12.0 0.00 0.00 0.00 69 1010.8
20260901060540 87 56 7.0 12.0 0.00 0.00 0.00 68 1010.8
20260901060019 88 13 5.0 11.0 0.00 0.00 0.00 67 1010.7
20260901055528 88 110 3.0 8.0 0.00 0.00 0.00 68 1010.7
20260901055032 88 19 5.0 8.0 0.00 0.00 0.00 67 1010.6
20260901054515 88 103 3.0 9.0 0.00 0.00 0.00 68 1010.7
20260901054024 87 14 3.0 13.0 0.00 0.00 0.00 68 1010.7
20260901053533 88 35 4.0 13.0 0.00 0.00 0.00 68 1010.7
20260901053100 88 93 4.0 10.0 0.00 0.00 0.00 67 1010.9
20260901052520 88 63 4.0 9.0 0.00 0.00 0.00 68 1010.8
20260901052028 88 75 5.0 13.0 0.00 0.00 0.00 68 1010.8
20260901051537 87 135 5.0 13.0 0.00 0.00 0.00 68 1010.8
20260901051015 88 99 4.0 11.0 0.00 0.00 0.00 67 1010.9
20260901050524 88 90 6.0 11.0 0.00 0.00 0.00 66 1010.9
20260901050032 88 60 5.0 13.0 0.00 0.00 0.00 68 1010.9
20260901045542 88 124 7.0 13.0 0.00 0.00 0.00 67 1010.9
20260901045020 88 71 4.0 12.0 0.00 0.00 0.00 67 1010.9
20260901044530 88 77 4.0 12.0 0.00 0.00 0.00 68 1010.9
20260901044039 88 172 4.0 10.0 0.00 0.00 0.00 67 1010.9
20260901043522 87 102 5.0 13.0 0.00 0.00 0.00 67 1010.8
20260901043026 87 59 7.0 13.0 0.00 0.00 0.00 66 1010.8
20260901042535 87 24 6.0 14.0 0.00 0.00 0.00 66 1010.8
20260901042018 87 53 9.0 14.0 0.00 0.00 0.00 65 1011.0
20260901041529 87 37 5.0 12.0 0.00 0.00 0.00 67 1011.0
20260901041038 87 55 4.0 11.0 0.00 0.00 0.00 69 1011.0
20260901040521 87 35 5.0 10.0 0.00 0.00 0.00 68 1011.0
20260901040027 87 150 4.0 10.0 0.00 0.00 0.00 70 1011.0
20260901035530 86 347 5.0 13.0 0.00 0.00 0.00 69 1010.9
20260901035038 86 68 4.0 13.0 0.00 0.00 0.00 70 1011.0
20260901034540 86 30 5.0 11.0 0.00 0.00 0.00 70 1011.0
20260901034028 86 265 6.0 11.0 0.00 0.00 0.00 70 1011.0
20260901033539 86 13 5.0 9.0 0.00 0.00 0.00 71 1011.2
20260901033019 85 76 4.0 12.0 0.00 0.00 0.00 71 1011.2
20260901032518 85 63 7.0 12.0 0.00 0.00 0.00 72 1011.0
20260901032028 85 53 5.0 9.0 0.00 0.00 0.00 72 1011.1
20260901031533 85 49 6.0 13.0 0.00 0.00 0.00 71 1011.2
20260901030527 86 68 5.0 11.0 0.00 0.00 0.00 70 1011.3
20260901030034 86 62 5.0 10.0 0.00 0.00 0.00 70 1011.4
20260901025516 86 94 4.0 9.0 0.00 0.00 0.00 68 1011.4
20260901025025 87 16 5.0 11.0 0.00 0.00 0.00 67 1011.3
20260901024553 87 41 5.0 11.0 0.00 0.00 0.00 67 1011.3
20260901024036 87 34 6.0 11.0 0.00 0.00 0.00 67 1011.4
20260901023517 87 77 5.0 13.0 0.00 0.00 0.00 67 1011.3
20260901023015 86 79 7.0 13.0 0.00 0.00 0.00 69 1011.4
20260901022524 86 19 6.0 12.0 0.00 0.00 0.00 69 1011.4
20260901022033 86 6 5.0 12.0 0.00 0.00 0.00 70 1011.5
20260901021514 85 66 6.0 12.0 0.00 0.00 0.00 70 1011.5
20260901021024 85 139 5.0 8.0 0.00 0.00 0.00 70 1011.5
20260901020526 85 31 5.0 11.0 0.00 0.00 0.00 70 1011.5
20260901020029 85 81 7.0 11.0 0.00 0.00 0.00 70 1011.6
20260901015540 85 19 5.0 9.0 0.00 0.00 0.00 70 1011.5
20260901015021 85 74 5.0 9.0 0.00 0.00 0.00 70 1011.6
20260901014530 86 354 5.0 11.0 0.00 0.00 0.00 70 1011.6
20260901014100 85 48 5.0 11.0 0.00 0.00 0.00 71 1011.6
20260901013522 85 63 6.0 10.0 0.00 0.00 0.00 71 1011.8
20260901013028 85 309 6.0 12.0 0.00 0.00 0.00 70 1011.8
20260901012517 85 56 5.0 12.0 0.00 0.00 0.00 70 1011.7
20260901012102 85 70 6.0 13.0 0.00 0.00 0.00 70 1011.8
20260901011521 86 15 8.0 13.0 0.00 0.00 0.00 68 1011.8
20260901011028 86 319 6.0 15.0 0.00 0.00 0.00 69 1011.8
20260901010538 86 84 8.0 15.0 0.00 0.00 0.00 68 1011.7
20260901010018 86 58 5.0 13.0 0.00 0.00 0.00 69 1011.7
20260901005528 86 15 7.0 13.0 0.00 0.00 0.00 69 1011.6
20260901005037 86 117 6.0 14.0 0.00 0.00 0.00 69 1011.6
20260901004541 86 46 8.0 14.0 0.00 0.00 0.00 69 1011.6
20260901004023 86 44 6.0 14.0 0.00 0.00 0.00 69 1011.4
20260901003533 86 31 6.0 14.0 0.00 0.00 0.00 70 1011.3
20260901003039 86 34 6.0 15.0 0.00 0.00 0.00 71 1011.3
20260901002519 85 76 8.0 15.0 0.00 0.00 0.00 71 1011.3
20260901002025 85 53 8.0 14.0 0.00 0.00 0.00 71 1011.3
20260901001537 85 103 7.0 16.0 0.00 0.00 0.00 71 1011.4
20260901001019 85 4 8.0 16.0 0.00 0.00 0.00 71 1011.4
20260901000524 85 2 9.0 14.0 0.00 0.00 0.00 70 1011.4
20260901000029 85 293 7.0 13.0 0.00 0.00 0.00 71 1011.2
20260831235539 85 46 5.0 13.0 0.00 0.00 0.00 72 1011.3
20260831235021 85 23 8.0 12.0 0.00 0.00 0.00 73 1011.3
20260831234527 85 22 7.0 12.0 0.00 0.00 0.00 73 1011.4
20260831234017 85 108 6.0 12.0 0.00 0.00 0.00 74 1011.4
20260831233527 85 13 6.0 12.0 0.00 0.00 0.00 74 1011.4
20260831232527 85 11 6.0 11.0 0.00 0.00 0.00 75 1011.4
20260831232036 84 41 6.0 12.0 0.00 0.00 0.00 75 1011.3
20260831231517 84 18 4.0 9.0 0.00 0.00 0.00 76 1011.3
20260831231026 84 111 4.0 10.0 0.00 0.00 0.00 76 1011.2
20260831230535 84 54 5.0 10.0 0.00 0.00 0.00 76 1011.2
20260831230041 84 72 5.0 10.0 0.00 0.00 0.00 77 1011.2
20260831225521 83 94 5.0 10.0 0.00 0.00 0.00 77 1011.1
20260831225025 83 35 5.0 9.0 0.00 0.00 0.00 78 1011.1
20260831224101 83 43 5.0 10.0 0.00 0.00 0.00 78 1011.1
20260831223521 83 134 3.0 10.0 0.00 0.00 0.00 79 1011.1
20260831223028 83 96 4.0 8.0 0.00 0.00 0.00 79 1011.1
20260831222537 83 65 5.0 8.0 0.00 0.00 0.00 79 1011.1
20260831222041 82 311 4.0 8.0 0.00 0.00 0.00 79 1011.1
20260831221528 82 91 4.0 8.0 0.00 0.00 0.00 79 1011.1
20260831221017 82 53 3.0 8.0 0.00 0.00 0.00 79 1011.0
20260831220522 82 63 3.0 8.0 0.00 0.00 0.00 79 1011.0
20260831220049 82 80 3.0 8.0 0.00 0.00 0.00 79 1010.9
20260831215600 82 75 4.0 11.0 0.00 0.00 0.00 79 1010.9
20260831215019 82 50 3.0 11.0 0.00 0.00 0.00 79 1010.7
20260831214040 82 37 4.0 10.0 0.00 0.00 0.00 78 1010.7
20260831213526 82 46 3.0 8.0 0.00 0.00 0.00 78 1010.6
20260831213031 82 49 4.0 8.0 0.00 0.00 0.00 77 1010.5
20260831212524 81 86 3.0 7.0 0.00 0.00 0.00 78 1010.5
20260831212034 81 62 3.0 7.0 0.00 0.00 0.00 78 1010.4
20260831211518 81 96 3.0 5.0 0.00 0.00 0.00 78 1010.4
20260831211027 81 293 2.0 5.0 0.00 0.00 0.00 78 1010.4
20260831210538 81 61 3.0 5.0 0.00 0.00 0.00 78 1010.3
20260831210018 81 51 3.0 6.0 0.00 0.00 0.00 79 1010.2
20260831205517 81 8 3.0 6.0 0.00 0.00 0.00 79 1010.2
20260831205022 81 76 2.0 3.0 0.00 0.00 0.00 79 1010.3
20260831204531 81 79 2.0 6.0 0.00 0.00 0.00 79 1010.2
20260831204041 81 87 2.0 6.0 0.00 0.00 0.00 79 1010.3